ETD216A OMAA-VIDP

Flight info

Callsign ETD216A
Flight time N/A
Altitude 37000
Route KANIP N318 LAKLU G216 KC Z306 RK G452 LKA LKA7A
Aircraft B77W/H-SDE1E2E3FGHIJ2J3J4J5M1RWXY/LB1D1

Departure

Time 2026-04-28 05:54
Airport Zayed International Airport (OMAA)

Arrival

Time N/A
Airport Indira Gandhi International Airport (VIDP)
Time Latitude Longitude Altitude Speed Heading
2026-04-28 05:27 24.44786 54.64428 97 ft 0 kts 252°
2026-04-28 05:38 24.44787 54.64432 97 ft 2 kts 249°
2026-04-28 05:38 24.44793 54.64447 97 ft 2 kts 240°
2026-04-28 05:38 24.44800 54.64461 97 ft 2 kts 242°
2026-04-28 05:38 24.44807 54.64476 97 ft 2 kts 243°
2026-04-28 05:39 24.44814 54.64490 97 ft 2 kts 243°
2026-04-28 05:39 24.44821 54.64505 97 ft 2 kts 243°
2026-04-28 05:39 24.44828 54.64520 97 ft 0 kts 243°
2026-04-28 05:41 24.44827 54.64519 97 ft 0 kts 241°
2026-04-28 05:41 24.44825 54.64516 97 ft 0 kts 228°
2026-04-28 05:41 24.44823 54.64514 97 ft 0 kts 212°
2026-04-28 05:41 24.44822 54.64514 97 ft 0 kts 206°
2026-04-28 05:42 24.44820 54.64513 97 ft 0 kts 196°
2026-04-28 05:42 24.44818 54.64513 97 ft 0 kts 186°
2026-04-28 05:42 24.44816 54.64514 97 ft 0 kts 176°
2026-04-28 05:42 24.44811 54.64516 97 ft 0 kts 159°
2026-04-28 05:43 24.44798 54.64521 97 ft 4 kts 159°
2026-04-28 05:43 24.44792 54.64524 96 ft 0 kts 159°
2026-04-28 05:43 24.44777 54.64531 96 ft 3 kts 155°
2026-04-28 05:43 24.44744 54.64550 97 ft 6 kts 151°
2026-04-28 05:44 24.44696 54.64582 97 ft 8 kts 143°
2026-04-28 05:44 24.44646 54.64635 97 ft 10 kts 129°
2026-04-28 05:44 24.44606 54.64691 97 ft 7 kts 128°
2026-04-28 05:44 24.44573 54.64732 97 ft 6 kts 153°
2026-04-28 05:45 24.44540 54.64721 97 ft 5 kts 214°
2026-04-28 05:45 24.44509 54.64697 97 ft 5 kts 217°
2026-04-28 05:45 24.44480 54.64672 97 ft 5 kts 217°
2026-04-28 05:45 24.44451 54.64648 97 ft 5 kts 218°
2026-04-28 05:46 24.44424 54.64625 97 ft 4 kts 218°
2026-04-28 05:46 24.44397 54.64602 97 ft 4 kts 218°
2026-04-28 05:46 24.44374 54.64582 97 ft 4 kts 218°
2026-04-28 05:46 24.44352 54.64563 97 ft 3 kts 218°
2026-04-28 05:47 24.44331 54.64545 97 ft 3 kts 217°
2026-04-28 05:47 24.44310 54.64527 97 ft 3 kts 217°
2026-04-28 05:47 24.44291 54.64511 96 ft 3 kts 217°
2026-04-28 05:47 24.44274 54.64497 97 ft 1 kts 231°
2026-04-28 05:48 24.44271 54.64487 97 ft 1 kts 255°
2026-04-28 05:48 24.44268 54.64471 97 ft 2 kts 261°
2026-04-28 05:48 24.44263 54.64443 96 ft 5 kts 255°
2026-04-28 05:48 24.44237 54.64400 96 ft 8 kts 222°
2026-04-28 05:49 24.44182 54.64351 97 ft 11 kts 218°
2026-04-28 05:49 24.44118 54.64297 96 ft 9 kts 225°
2026-04-28 05:49 24.44122 54.64273 96 ft 1 kts 315°
2026-04-28 05:49 24.44138 54.64253 96 ft 4 kts 308°
2026-04-28 05:50 24.44166 54.64214 96 ft 8 kts 308°
2026-04-28 05:50 24.44208 54.64153 96 ft 11 kts 307°
2026-04-28 05:50 24.44268 54.64068 96 ft 15 kts 308°
2026-04-28 05:50 24.44336 54.63973 96 ft 15 kts 308°
2026-04-28 05:51 24.44401 54.63883 96 ft 14 kts 308°
2026-04-28 05:51 24.44461 54.63799 96 ft 13 kts 308°
2026-04-28 05:51 24.44516 54.63721 96 ft 12 kts 308°
2026-04-28 05:51 24.44549 54.63660 96 ft 6 kts 268°
2026-04-28 05:52 24.44528 54.63618 96 ft 7 kts 226°
2026-04-28 05:52 24.44483 54.63574 96 ft 9 kts 218°
2026-04-28 05:52 24.44436 54.63538 96 ft 3 kts 191°
2026-04-28 05:52 24.44418 54.63549 96 ft 3 kts 128°
2026-04-28 05:53 24.44369 54.63620 96 ft 32 kts 127°
2026-04-28 05:53 24.44076 54.64031 97 ft 102 kts 128°
2026-04-28 05:53 24.43498 54.64845 102 ft 162 kts 128°
2026-04-28 05:53 24.42754 54.65883 516 ft 178 kts 128°
2026-04-28 05:54 24.41980 54.66981 1139 ft 192 kts 127°
2026-04-28 05:54 24.41130 54.68182 1538 ft 207 kts 126°
2026-04-28 05:54 24.40205 54.69486 1871 ft 225 kts 126°
2026-04-28 05:54 24.39194 54.70910 2227 ft 243 kts 126°
2026-04-28 05:55 24.38121 54.72420 2667 ft 259 kts 127°
2026-04-28 05:55 24.37005 54.74030 3077 ft 275 kts 121°
2026-04-28 05:55 24.36231 54.75979 3770 ft 277 kts 108°
2026-04-28 05:55 24.35595 54.77987 4479 ft 281 kts 107°
2026-04-28 05:56 24.34956 54.80027 5125 ft 286 kts 107°
2026-04-28 05:56 24.34310 54.82091 5876 ft 287 kts 107°
2026-04-28 05:56 24.33657 54.84177 6547 ft 291 kts 107°
2026-04-28 05:56 24.32989 54.86306 7235 ft 294 kts 107°
2026-04-28 05:57 24.32322 54.88434 7875 ft 298 kts 107°
2026-04-28 05:57 24.31646 54.90589 8516 ft 301 kts 107°
2026-04-28 05:57 24.30955 54.92787 9169 ft 304 kts 107°
2026-04-28 05:57 24.30270 54.94971 9778 ft 308 kts 107°
2026-04-28 05:58 24.29565 54.97213 10398 ft 312 kts 108°
2026-04-28 05:58 24.28838 54.99528 10714 ft 330 kts 108°
2026-04-28 05:58 24.28075 55.01953 11060 ft 345 kts 108°
2026-04-28 05:58 24.27263 55.04534 11412 ft 361 kts 108°
2026-04-28 05:59 24.26422 55.07202 11782 ft 376 kts 109°
2026-04-28 05:59 24.25550 55.09966 12136 ft 391 kts 109°
2026-04-28 05:59 24.24630 55.12879 12529 ft 404 kts 109°
2026-04-28 05:59 24.23706 55.15800 13154 ft 410 kts 109°
2026-04-28 06:00 24.22762 55.18784 13938 ft 413 kts 110°
2026-04-28 06:00 24.21815 55.21775 14618 ft 419 kts 110°
2026-04-28 06:00 24.20847 55.24830 15316 ft 426 kts 110°
2026-04-28 06:00 24.19867 55.27919 16041 ft 431 kts 110°
2026-04-28 06:01 24.18875 55.31045 16750 ft 437 kts 110°
2026-04-28 06:01 24.17859 55.34243 17393 ft 443 kts 111°
2026-04-28 06:01 24.16771 55.37400 18050 ft 447 kts 115°
2026-04-28 06:01 24.15535 55.40563 18740 ft 452 kts 115°
2026-04-28 06:02 24.14278 55.43767 19378 ft 458 kts 115°
2026-04-28 06:02 24.13018 55.46993 19945 ft 465 kts 115°
2026-04-28 06:02 24.11748 55.50259 20606 ft 469 kts 115°
2026-04-28 06:02 24.10453 55.53595 21294 ft 472 kts 115°
2026-04-28 06:03 24.09253 55.56690 21824 ft 478 kts 115°
2026-04-28 06:03 24.07895 55.60196 22380 ft 484 kts 115°
2026-04-28 06:03 24.06574 55.63606 22947 ft 489 kts 115°
2026-04-28 06:03 24.05167 55.67047 23518 ft 492 kts 119°
2026-04-28 06:04 24.03553 55.70410 24063 ft 496 kts 121°
2026-04-28 06:04 24.01923 55.73757 24591 ft 500 kts 121°
2026-04-28 06:04 24.00289 55.77125 25101 ft 505 kts 121°
2026-04-28 06:04 23.98621 55.80580 25668 ft 509 kts 121°
2026-04-28 06:05 23.96969 55.84010 26251 ft 512 kts 120°
2026-04-28 06:05 23.95287 55.87509 26799 ft 516 kts 121°
2026-04-28 06:05 23.93621 55.90979 27322 ft 520 kts 121°
2026-04-28 06:05 23.91898 55.94568 27882 ft 524 kts 121°
2026-04-28 06:06 23.90209 55.98088 28427 ft 528 kts 121°
2026-04-28 06:06 23.89058 56.00486 28804 ft 530 kts 121°
2026-04-28 06:06 23.86967 56.04843 29390 ft 535 kts 120°
2026-04-28 06:06 23.85123 56.08685 29909 ft 537 kts 120°
2026-04-28 06:07 23.83388 56.12300 30390 ft 539 kts 120°
2026-04-28 06:07 23.81629 56.15963 30877 ft 540 kts 119°
2026-04-28 06:07 23.79872 56.19618 31339 ft 541 kts 119°
2026-04-28 06:07 23.78119 56.23264 31779 ft 542 kts 118°
2026-04-28 06:08 23.76359 56.26922 32189 ft 544 kts 118°
2026-04-28 06:08 23.74600 56.30573 32722 ft 545 kts 118°
2026-04-28 06:08 23.72831 56.34244 33392 ft 543 kts 118°
2026-04-28 06:08 23.71068 56.37901 34273 ft 537 kts 118°
2026-04-28 06:09 23.69334 56.41493 35144 ft 531 kts 118°
2026-04-28 06:09 23.67602 56.45080 35892 ft 527 kts 118°
2026-04-28 06:09 23.65880 56.48644 36511 ft 525 kts 119°
2026-04-28 06:09 23.64172 56.52173 36960 ft 525 kts 119°
2026-04-28 06:10 23.60747 56.59244 36997 ft 525 kts 118°
2026-04-28 06:10 23.57459 56.66024 36993 ft 526 kts 119°
2026-04-28 06:11 23.53973 56.73201 36994 ft 525 kts 119°
2026-04-28 06:11 23.50518 56.80306 37007 ft 525 kts 119°
2026-04-28 06:12 23.47100 56.87322 37009 ft 526 kts 119°
2026-04-28 06:12 23.43644 56.94407 37017 ft 525 kts 119°
2026-04-28 06:13 23.40459 57.01566 37036 ft 526 kts 110°
2026-04-28 06:13 23.38987 57.09386 37085 ft 526 kts 92°
2026-04-28 06:14 23.39543 57.17293 37124 ft 524 kts 78°
2026-04-28 06:14 23.40737 57.23800 37134 ft 523 kts 77°
2026-04-28 06:15 23.42402 57.32824 37099 ft 523 kts 77°
2026-04-28 06:15 23.43824 57.40595 37044 ft 522 kts 77°
2026-04-28 06:16 23.45247 57.48415 36979 ft 523 kts 77°
2026-04-28 06:16 23.46653 57.56173 36941 ft 523 kts 77°
2026-04-28 06:17 23.48060 57.63969 36895 ft 524 kts 77°
2026-04-28 06:18 23.50137 57.75523 36853 ft 523 kts 77°